Details for Ryanair at LCPH




Go Back


Latest METAR
Local Time

LCPH 170900Z 26012KT 9999 FEW018 30/24 Q1009
17/08/2018, 12:02:42

Description
Results
Ryanair Logo
Number of Pilots based at LCPH
0 Pilots Based here
Number of Ryanair Flights Departed from LCPH
3 Flights Departed
Number of Ryanair Flights Arrived at LCPH
2 Flights Arrived
Number of Ryanair Schedules Departing from LCPH
36 Schedules
Number of Ryanair Schedules Arriving at LCPH
36 Schedules
Number of Ryanair Schedules Departing from LCPH availible today
7 Schedules Today
Number of Ryanair Schedules Arriving at LCPH availible today
7 Schedules Today
Average Landing Rate at LCPH
-224 fpm
Ryanair Average Landing Rate at LCPH
-249 fpm
Total Fuel Purchased at LCPH by Ryanair
29,011.36 kgs / 63,958.44 lbs

Pilots Based at LCPH


Pilot ID
Pilot Name
Pilot Rank
No. of Flights
No. of Flying Hours
There are no pilots assigned to this hub!   Will you be the first?
Content